Volver al catálogo

CZ-6A DEB

ActivoPO
NORAD 60826·DEBRIS·🇨🇳 China

Lanzado Aug 6, 2024 desde Taiyuan Satellite Launch Center

Loading…

Próximos Pases (próximas 24 horas)

TLE

ActualizadoSource: Space-Track

Época: Sep 14, 2026, 06:51 UTC

1 60826U 24140HD  26257.28563057  .00000782  00000-0  31898-3 0  9990
2 60826  88.9692 261.4108 0029038 187.9112 172.1628 14.26238559108538

Sigue CZ-6A DEB en tiempo real con AllMySat

Download on the App Store